SCOUT A DEB, 2141

Orbit data source: Space-Track

SCOUT A DEB, 2141 is space debris in LEO originally from a launch on Fri, 28 Jan 1966 UTC launched from the Air Force Western Test Range (AFWTR). Debris objects in space refer to the collection of defunct objects orbiting the Earth. Examples of debris include non-operational satellites, rocket bodies, and fragments generated from explosions, collisions, or faulty payload assembly.

Loading next visibility...
Identifier
2141, 1966-005D
Orbit
LEO
Country
Flag of USUS
Related business
Manufacturer
Unknown
Mission
Spacecraft
Bus & Motor
Unknown
Mass
Unknown
Launch date (UTC)
1966-01-28 (60 years ago)
Launch vehicle
Unknown
Launch site
Air Force Western Test Range (AFWTR)
Object type
Payload
Rocket body
Debris
Shape & HBR
Unknown shape, 0.1 m
Radar Cross Section
Small (<0.1 m²)

Expand to show TLE details & history
Last TLE update: 1 day ago

TLE from 1 day ago
0 SCOUT A DEB
1 02141U 66005D   25305.35107911  .00001122  00000-0  64295-3 0  9992
2 02141  90.2357 252.5508 0117803  67.3327 294.0261 14.05518966 36571
Epoch: 2025-11-01T08:25Z
TLE epoch observation values (Epoch: 2025-11-01T08:25:33.235Z)
Latitude
-0.00002°
Longitude
85.27991°
Altitude
843.832 km
Speed
7.448 km/s
True Right ascension
16h 50m 12s
True Declination
0° 00' 00"
Sunlit
Object was in daylight at epoch
Visualization orbit readout
Latitude
Unknown
Longitude
Unknown
Altitude
Unknown
Speed
Unknown
Apparent Right ascension
Unknown
Apparent Declination
Unknown
Sunlit
N/A
Visualization observer readout
Local Sidereal Time
15:02:36
Azimuth
Unknown
Elevation
Unknown
Doppler factor
Unknown
Orbital elements
Apogee altitude
957.121 km
Perigee altitude
786.31 km
Semi-major axis
7,249.852 km
Eccentricity
0.01178
Inclination
90.2357°
RAAN
252.5508°
Arg. of periapsis
67.3327°
True anomaly
292.7858°
Mean anomaly
294.0261°
Eccentric anomaly
293.40668°
Mean motion
3.516 °/min
Orbital period
102.39 mins
BSTAR
0.00064295
Loading maneuver chart data...
Computing Atmospheric mass density...
Loading historical data...
Loading historical data...
Loading historical data...
Loading historical data...
Loading historical data...
Loading historical data...
Loading historical data...

Documentation

Showing up to 5 results
|